This is the latest recevied weather packets stored in our database for station/object KB0BS-13. If no packets are shown the sender has not sent any weather packets the latest 10 day(s).
| Time | Temp. | Humidity | Pressure | Rain* | Wind** | Luminosity | Snow |
|---|---|---|---|---|---|---|---|
| 1777325290 | 15° C | 61% | 1011.5 hPa | 0 mm | - | 217 W/m² | - |
| 1777324988 | 15° C | 59% | 1011.6 hPa | 0 mm | - | 202 W/m² | - |
| 1777324684 | 15° C | 60% | 1011.3 hPa | 0 mm | - | 220 W/m² | - |
| 1777324382 | 15° C | 60% | 1011.3 hPa | 0 mm | - | 232 W/m² | - |
| 1777324079 | 15° C | 62% | 1011.6 hPa | 0 mm | - | 260 W/m² | - |
| 1777323776 | 15° C | 60% | 1011.9 hPa | 0 mm | - | 317 W/m² | - |
| 1777323473 | 15° C | 59% | 1012 hPa | 0 mm | - | 343 W/m² | - |
| 1777323171 | 15° C | 61% | 1012.2 hPa | 0 mm | - | 347 W/m² | - |
| 1777322868 | 15° C | 59% | 1012.2 hPa | 0 mm | - | 273 W/m² | - |
| 1777322567 | 15° C | 59% | 1012.2 hPa | 0 mm | - | 300 W/m² | - |
| 1777322263 | 15.56° C | 58% | 1012.5 hPa | 0 mm | - | 313 W/m² | - |
| 1777321961 | 15.56° C | 57% | 1012.6 hPa | 0 mm | - | 338 W/m² | - |
| 1777321658 | 15.56° C | 57% | 1012.7 hPa | 0 mm | - | 377 W/m² | - |
| 1777321354 | 15.56° C | 57% | 1013.2 hPa | 0 mm | - | 393 W/m² | - |
| 1777321051 | 15.56° C | 56% | 1013.1 hPa | 0 mm | - | 388 W/m² | - |
| 1777320749 | 15.56° C | 57% | 1013.4 hPa | 0 mm | - | 315 W/m² | - |
| 1777320445 | 16.11° C | 57% | 1013.5 hPa | 0 mm | - | 333 W/m² | - |
| 1777320143 | 16.11° C | 55% | 1013.7 hPa | 0 mm | - | 404 W/m² | - |
| 1777319840 | 16.67° C | 55% | 1013.6 hPa | 0 mm | - | 417 W/m² | - |
| 1777319536 | 16.11° C | 56% | 1013.8 hPa | 0 mm | - | 416 W/m² | - |
| 1777319234 | 16.11° C | 56% | 1013.8 hPa | 0 mm | - | 412 W/m² | - |
| 1777318930 | 16.67° C | 55% | 1014 hPa | 0 mm | - | 479 W/m² | - |
| 1777318628 | 16.67° C | 55% | 1014 hPa | 0 mm | - | 479 W/m² | - |
| 1777318323 | 16.67° C | 56% | 1014.1 hPa | 0 mm | - | 543 W/m² | - |
| 1777318020 | 16.67° C | 55% | 1014.3 hPa | 0 mm | - | 576 W/m² | - |
* Rain latest hour (hover to see other rain measurements)
** Current wind speed in m/s (hover to see current wind gust speed)